Weather in Arkalyk

Kazakhstan     50˚15′10″N   66˚54′49″E
temp.,
°C
wind,
m/s
gust,
m/s
humid.,
%
clouds,
%
prec.,
mm/h
press.,
hPa
HPBL,
m
30 november, mon
mon3000:00−18˚nne22960 0.0 105020
03:00−18˚n22950 0.0 105120
06:00−18˚nne23960 0.0 105120
09:00−19˚ne339824 0.0 105024
12:00−17˚ene359621 0.0 1051145
15:00−16˚ene34950 0.0 1050105
18:00−18˚ene44965 0.0 105051
21:00−19˚ene579820 0.0 1050112
1 december, tue
tue100:00−20˚e6109713 0.0 1050155
03:00−20˚e6109711 0.0 1049179
06:00−21˚e7119712 0.0 1049180
09:00−21˚e7129720 0.0 1048189
12:00−20˚e8139533 0.0 1048265
15:00−19˚e8139325 0.0 1047272
18:00−20˚e7139412 0.0 1046213
21:00−19˚e713955 0.0 1046225
2 december, wed
wed200:00−18˚e712948 0.0 1045197
03:00−18˚e711950 0.0 1043187
06:00−19˚e812947 0.0 1043188
09:00−17˚e8139099 0.0 1042221
12:00−15˚e8128899 0.0 1040254
15:00−15˚e81289100 0.0 1038272
18:00−16˚e6129350 0.0 1038218
21:00−18˚e510950 0.0 1037156
3 december, thu
thu300:00−18˚e59950 0.0 1036134
03:00−19˚e59950 0.0 1035125
06:00−19˚e68950 0.0 1035130
09:00−19˚e59940 0.0 1034134
12:00−16˚e58901 0.0 1034196
15:00−15˚ene589055 0.0 1033213
18:00−16˚ene599270 0.0 1032180
21:00−18˚e589495 0.0 1032142
4 december, fri
fri400:00−18˚ene589591 0.0 1031140
03:00−16˚ene599599 0.1 1031191
06:00−16˚ene699597 0.1 1030223
09:00−16˚ene6995100 0.1 1031217
12:00−16˚ene6895100 0.1 1032243
15:00−15˚ene6894100 0.1 1032251
18:00−16˚ene6995100 0.1 1032254
21:00−16˚ene5895100 0.1 1033246